Wind_Speed
44 45 40 39 40 38 42 42 41 41 42 46 45 46 38 38 39 41 49 48 44 40 41 42 41 39 37 36 36 35 34 32 31 30 29 26 24 21 19 19 19 21 22 23
46 46 44 43 41 39 41 43 41 42 44 46 46 44 45 43 39 37 40 45 46 45 45 45 43 40 38 38 35 34 33 32 32 31 29 26 23 21 19 19 20 21 22 21
47 47 46 46 42 41 41 44 42 45 46 47 49 43 42 42 46 41 40 43 44 44 46 45 44 40 40 38 35 34 35 33 32 31 29 27 25 22 20 20 20 21 21 20
43 46 44 44 42 41 44 44 43 46 47 45 47 47 40 41 40 42 42 41 43 44 46 47 45 43 42 33 34 37 32 33 33 31 30 28 27 24 22 22 20 20 22 21
42 44 44 43 42 42 47 43 45 45 45 48 46 48 40 37 38 34 35 39 43 46 48 45 44 45 40 37 36 32 35 34 33 32 31 29 29 27 25 25 22 21 20 23
44 43 44 45 45 45 46 46 44 45 44 51 44 45 37 39 34 29 29 33 39 40 44 45 43 45 38 35 37 33 32 34 33 32 32 31 30 29 27 27 25 22 22 23
39 43 45 45 46 45 45 44 44 46 48 48 44 46 37 43 37 32 26 31 36 37 35 37 38 35 37 36 35 35 36 35 33 33 32 32 30 30 29 28 26 25 25 26
39 40 41 43 44 43 44 45 44 47 46 47 47 46 39 41 36 31 32 31 34 37 37 36 37 39 40 39 37 35 34 35 34 33 32 32 30 29 31 30 30 28 30 30
41 40 41 42 42 42 41 41 41 44 45 46 44 39 36 36 33 25 27 32 34 37 40 40 40 40 40 38 38 38 38 37 35 33 33 30 31 30 30 31 32 33 36 36
43 44 42 45 45 43 42 40 40 40 42 45 44 39 36 34 31 28 25 29 33 36 38 40 41 39 39 38 39 41 39 36 35 34 32 31 32 32 33 33 35 38 40 41
47 44 44 43 43 43 43 43 44 44 45 47 47 43 38 35 33 29 25 26 29 35 37 37 38 41 41 40 41 41 39 36 34 34 34 35 35 35 35 37 39 40 42 44
45 48 43 41 46 47 45 43 43 44 45 47 52 50 36 37 36 32 29 25 29 34 35 36 37 39 41 39 40 37 36 36 36 37 37 37 37 37 39 40 42 44 46 48
44 45 44 44 43 42 45 45 44 44 47 49 51 49 38 35 34 33 31 29 30 31 35 36 37 37 42 40 39 39 38 38 39 40 40 39 39 41 42 44 45 47 49 50
44 44 44 43 45 46 45 46 46 47 51 50 53 50 41 37 36 29 30 29 32 33 35 37 36 37 41 41 40 41 42 42 42 42 41 41 43 44 45 46 48 49 50 51
48 48 46 46 46 47 47 46 47 50 50 54 46 49 40 38 35 31 35 34 31 35 39 40 39 41 40 41 43 44 44 44 44 44 44 44 46 47 48 49 50 52 52 53
52 53 53 53 51 52 53 49 48 46 43 47 48 52 37 42 39 36 37 37 37 36 40 43 46 46 46 45 46 46 46 45 47 47 47 48 49 49 50 51 53 53 53 54
53 54 53 56 52 54 63 52 48 45 45 44 47 43 42 43 41 39 39 39 40 39 41 45 45 49 51 50 50 49 50 49 50 50 50 50 51 51 51 53 55 55 56 57
52 50 52 54 53 60 62 56 51 49 46 44 45 41 41 43 41 44 43 41 42 41 39 41 48 52 56 55 55 55 55 53 52 52 52 51 52 53 54 56 58 59 59 61
54 51 52 54 58 60 64 59 55 54 52 45 48 47 48 46 47 38 38 42 43 45 45 43 44 49 54 57 58 57 57 55 55 54 54 54 54 56 58 60 61 62 63 64
58 57 55 57 60 64 62 60 59 53 56 42 45 47 49 51 51 46 41 42 44 46 46 48 48 49 51 54 57 58 57 56 56 55 56 57 58 60 62 64 64 65 67 68
58 57 56 56 61 66 63 61 57 56 49 49 50 49 46 44 46 43 40 40 41 46 47 46 51 54 55 55 54 55 57 57 57 58 59 61 62 64 65 66 68 70 71 72
62 61 62 61 61 70 60 59 60 55 53 49 49 47 50 50 47 44 43 42 41 41 45 48 48 54 58 57 59 61 62 62 62 63 64 64 66 66 67 69 72 73 74 74
70 66 63 66 67 61 61 61 63 61 56 51 52 50 47 48 49 47 43 41 42 43 43 46 49 51 54 59 65 65 64 65 65 65 67 67 68 69 72 73 74 75 75 76
74 70 70 70 73 68 65 66 68 63 56 56 58 55 52 48 48 48 46 46 46 46 45 45 50 54 55 58 61 65 67 67 67 66 66 68 71 72 72 75 77 76 78 77
76 77 78 78 77 71 64 61 62 65 64 63 60 58 56 53 51 51 51 49 49 48 45 45 45 49 54 56 57 61 65 70 71 70 71 72 74 76 74 71 72 72 71 71
75 75 74 75 70 68 66 61 59 63 63 60 61 61 58 54 52 54 53 52 52 50 47 45 43 45 48 51 54 54 56 60 64 67 67 66 64 62 62 64 65 65 66 68
Wind_Direction
265 263 263 264 264 268 267 273 272 268 268 269 270 271 269 268 263 259 252 249 250 247 243 246 249 252 257 259 257 255 257 257 255 255 252 247 244 250 256 265 272 275 279 281
263 260 261 262 265 267 268 269 272 272 269 268 267 265 268 267 266 262 258 254 254 249 247 247 251 254 258 253 254 260 259 255 254 252 245 238 240 247 255 263 268 270 273 277
259 260 260 262 262 266 267 268 270 272 273 270 269 265 267 268 266 263 259 255 253 255 256 256 254 253 255 254 253 255 254 254 253 245 239 237 240 248 253 260 265 266 268 274
258 259 257 257 261 262 263 263 266 270 273 274 269 268 262 264 266 265 263 262 259 255 253 254 257 258 258 253 253 251 251 252 245 240 235 236 241 247 251 257 262 265 265 269
259 257 257 257 257 259 262 262 263 268 270 269 270 272 269 265 266 269 265 265 259 260 256 255 257 254 250 248 250 249 251 248 240 237 235 237 241 247 250 256 261 266 273 275
257 257 256 255 255 256 259 261 263 265 265 267 271 272 263 271 273 270 263 261 261 263 257 252 253 253 250 250 250 250 253 243 238 237 237 239 243 247 252 257 262 269 279 283
259 259 258 256 255 256 257 258 262 262 264 269 272 270 271 273 276 270 262 259 256 260 262 254 252 252 253 249 249 250 247 237 238 238 240 243 245 247 254 261 266 272 279 282
263 266 263 261 259 257 255 255 257 264 269 272 270 268 273 280 283 274 269 258 254 250 251 249 247 247 248 247 246 244 236 239 239 240 245 248 250 254 258 265 269 274 277 279
264 266 263 261 259 260 260 260 262 265 266 270 273 275 272 275 284 281 262 256 252 249 246 245 244 244 246 248 249 237 233 238 240 243 249 253 255 258 264 269 273 275 274 277
260 262 263 261 258 258 260 260 257 259 267 270 274 275 275 280 284 285 264 251 246 247 247 246 245 243 244 243 244 232 235 239 241 245 253 257 259 262 267 271 273 274 275 275
259 260 260 261 260 257 258 260 260 261 262 269 275 272 275 281 289 290 284 265 252 250 248 247 247 246 242 238 234 233 238 240 243 250 254 257 260 264 269 273 274 275 275 276
256 254 261 261 257 258 261 262 261 263 266 267 268 267 274 283 288 290 287 278 257 250 251 247 244 246 241 232 235 239 241 241 245 251 255 258 261 266 270 272 273 276 277 278
257 258 260 261 261 261 261 260 260 259 259 260 265 271 279 276 280 287 284 272 263 254 247 245 242 242 235 227 231 236 238 240 245 249 254 258 261 265 268 270 273 276 277 278
255 257 259 261 263 264 263 260 258 260 261 267 266 273 274 275 278 282 278 273 263 255 249 244 239 233 232 228 232 236 237 241 245 249 253 256 260 264 267 270 274 275 277 278
255 258 260 263 265 265 265 262 260 260 262 264 272 271 278 280 278 268 270 263 261 251 249 242 236 234 231 237 237 237 239 242 245 249 252 257 260 263 267 272 274 276 278 279
257 259 261 261 262 264 264 263 262 264 271 272 275 267 282 279 272 269 264 265 260 252 248 245 241 236 237 232 233 235 238 242 245 249 252 255 259 264 269 272 275 278 279 279
257 261 263 265 263 262 261 262 268 270 269 274 270 275 278 274 272 268 268 267 265 256 250 249 248 245 239 236 234 237 240 243 246 249 252 257 261 265 270 272 276 277 277 278
255 258 261 264 264 260 263 264 265 267 268 274 274 276 277 277 274 269 267 264 264 259 252 251 251 247 242 239 241 244 247 248 249 252 256 260 264 268 271 273 275 275 276 277
252 252 258 260 265 266 263 268 268 266 266 271 273 274 272 271 271 280 279 266 259 259 254 248 249 249 248 248 248 249 250 251 254 256 259 262 266 268 271 272 274 274 275 277
251 253 252 256 259 266 271 270 269 270 268 268 275 276 274 272 270 273 276 272 260 258 258 252 245 247 248 251 252 252 254 256 257 260 262 265 267 268 270 271 272 274 275 276
248 250 253 255 258 262 267 267 271 276 281 275 272 269 271 276 274 274 274 271 267 258 256 256 251 246 248 249 250 253 254 256 259 261 262 264 265 267 268 270 271 272 273 275
250 253 250 252 254 261 269 270 270 271 271 274 277 279 273 272 274 275 273 271 267 265 261 255 252 249 247 250 252 253 255 257 258 260 261 263 264 265 266 267 268 270 272 275
252 254 257 255 256 256 260 265 271 272 273 274 275 273 269 269 267 268 267 269 268 266 263 260 259 256 252 249 248 252 256 258 259 260 262 263 263 264 265 266 269 271 273 276
251 254 254 257 256 259 260 263 267 269 274 272 268 265 268 270 268 264 266 269 270 270 267 261 258 255 253 253 252 251 252 255 257 258 259 260 261 265 268 268 268 270 274 278
255 256 256 258 258 260 261 261 262 264 267 269 266 266 266 268 267 264 268 268 268 268 267 264 261 257 256 256 258 260 259 257 255 257 260 261 262 265 268 271 274 277 277 279
253 256 258 260 258 260 258 255 257 258 260 263 264 264 265 266 268 269 267 263 261 261 265 265 264 264 262 258 254 253 256 258 259 260 263 267 270 273 274 273 274 276 276 277
Height
5697 5697 5699 5700 5698 5699 5697 5697 5697 5697 5696 5694 5694 5693 5698 5697 5698 5699 5701 5702 5704 5705 5706 5708 5711 5713 5714 5715 5716 5718 5719 5720 5721 5722 5723 5724 5726 5728 5728 5728 5728 5728 5728 5727
5687 5687 5689 5690 5689 5690 5689 5689 5689 5688 5687 5684 5686 5686 5688 5689 5691 5692 5692 5693 5696 5695 5697 5699 5701 5702 5704 5705 5708 5711 5712 5713 5714 5715 5717 5719 5720 5721 5722 5722 5722 5722 5722 5722
5675 5677 5679 5680 5680 5680 5680 5680 5681 5679 5676 5677 5674 5675 5679 5682 5680 5683 5684 5686 5686 5688 5689 5691 5692 5693 5694 5697 5700 5702 5704 5706 5707 5709 5711 5713 5714 5715 5716 5716 5717 5717 5716 5716
5664 5666 5668 5669 5670 5670 5670 5671 5672 5670 5667 5667 5665 5661 5671 5671 5674 5674 5676 5677 5678 5678 5679 5681 5683 5684 5686 5687 5690 5694 5696 5698 5699 5702 5704 5706 5708 5709 5710 5710 5711 5711 5710 5710
5655 5656 5658 5659 5660 5661 5661 5663 5662 5660 5658 5656 5658 5654 5661 5665 5666 5668 5667 5666 5666 5668 5669 5671 5674 5675 5675 5679 5683 5686 5688 5690 5692 5695 5697 5699 5701 5702 5703 5704 5704 5704 5703 5703
5643 5646 5646 5649 5650 5650 5651 5651 5652 5650 5649 5645 5652 5650 5651 5653 5656 5659 5658 5658 5657 5657 5658 5660 5663 5664 5667 5672 5676 5678 5681 5683 5685 5688 5689 5691 5693 5695 5696 5697 5697 5696 5696 5695
5635 5635 5637 5637 5639 5640 5642 5642 5641 5641 5639 5639 5642 5640 5644 5642 5648 5649 5650 5649 5649 5649 5649 5652 5655 5658 5661 5665 5667 5670 5672 5675 5677 5680 5682 5684 5685 5687 5688 5689 5689 5688 5688 5688
5625 5628 5628 5629 5629 5631 5631 5632 5633 5630 5631 5631 5629 5629 5637 5635 5638 5639 5639 5640 5640 5641 5642 5644 5647 5649 5652 5655 5658 5661 5664 5666 5669 5672 5674 5676 5677 5678 5679 5680 5680 5680 5680 5680
5615 5617 5619 5619 5620 5621 5623 5624 5626 5622 5622 5619 5620 5624 5627 5628 5628 5629 5629 5629 5629 5630 5632 5634 5636 5640 5643 5646 5649 5652 5654 5657 5660 5663 5665 5667 5668 5669 5670 5671 5671 5671 5671 5670
5605 5607 5609 5610 5611 5612 5613 5616 5616 5615 5613 5610 5611 5614 5616 5618 5620 5620 5620 5620 5620 5621 5623 5625 5627 5630 5632 5636 5638 5641 5644 5648 5651 5654 5656 5658 5658 5659 5660 5661 5661 5661 5661 5661
5594 5596 5599 5600 5602 5603 5604 5605 5607 5607 5606 5603 5600 5604 5608 5610 5612 5612 5612 5613 5613 5613 5614 5615 5617 5619 5622 5625 5628 5632 5636 5640 5643 5645 5647 5648 5649 5650 5651 5651 5651 5651 5650 5650
5582 5583 5586 5589 5590 5592 5594 5595 5596 5596 5598 5595 5590 5587 5604 5604 5604 5605 5605 5604 5604 5605 5605 5606 5608 5610 5613 5616 5620 5625 5628 5631 5634 5636 5637 5638 5639 5640 5640 5640 5640 5639 5639 5638
5572 5572 5574 5577 5580 5581 5583 5586 5586 5586 5585 5583 5582 5583 5593 5596 5596 5596 5597 5597 5597 5596 5596 5597 5598 5600 5604 5607 5612 5615 5619 5622 5624 5625 5627 5628 5629 5629 5629 5628 5628 5628 5627 5626
5557 5560 5563 5567 5567 5568 5571 5573 5575 5574 5573 5576 5572 5576 5586 5588 5587 5590 5586 5586 5587 5588 5588 5588 5590 5592 5595 5598 5602 5605 5608 5611 5613 5615 5616 5617 5618 5618 5617 5617 5617 5616 5615 5613
5545 5548 5551 5554 5556 5557 5558 5561 5561 5562 5566 5561 5571 5566 5576 5577 5577 5577 5575 5575 5575 5577 5578 5580 5581 5583 5585 5589 5592 5594 5597 5600 5602 5604 5605 5606 5606 5605 5605 5605 5604 5603 5602 5600
5533 5535 5537 5540 5543 5544 5546 5548 5548 5554 5556 5554 5557 5552 5571 5562 5563 5565 5565 5563 5563 5565 5566 5569 5571 5573 5576 5578 5581 5583 5585 5588 5589 5591 5592 5593 5593 5593 5593 5592 5591 5590 5588 5586
5519 5521 5524 5526 5530 5530 5527 5540 5543 5545 5545 5546 5543 5549 5548 5548 5550 5553 5553 5554 5554 5555 5557 5558 5561 5563 5565 5567 5569 5571 5573 5575 5577 5578 5579 5580 5580 5580 5580 5579 5577 5576 5574 5572
5505 5508 5509 5511 5514 5513 5519 5524 5529 5531 5534 5534 5533 5537 5533 5532 5537 5538 5540 5542 5542 5542 5545 5547 5549 5552 5554 5556 5558 5559 5561 5563 5564 5565 5567 5568 5567 5566 5566 5564 5562 5560 5558 5556
5491 5494 5496 5497 5497 5502 5500 5507 5514 5515 5522 5525 5521 5521 5521 5522 5523 5530 5528 5529 5530 5530 5531 5534 5536 5539 5542 5544 5546 5547 5548 5549 5551 5552 5553 5553 5553 5552 5550 5548 5546 5545 5543 5540
5477 5481 5482 5484 5483 5483 5491 5495 5496 5501 5502 5517 5508 5507 5507 5508 5510 5514 5517 5516 5516 5517 5518 5520 5523 5526 5528 5531 5533 5535 5536 5537 5538 5538 5538 5538 5537 5536 5534 5532 5531 5529 5526 5523
5461 5463 5465 5471 5468 5468 5478 5482 5482 5486 5497 5493 5492 5495 5495 5495 5496 5499 5501 5503 5503 5504 5505 5507 5509 5512 5514 5516 5519 5521 5523 5524 5524 5524 5523 5522 5521 5519 5518 5516 5514 5512 5509 5506
5445 5447 5450 5453 5452 5453 5471 5471 5470 5476 5475 5479 5478 5481 5482 5482 5483 5483 5487 5488 5489 5490 5492 5493 5495 5497 5499 5502 5504 5506 5506 5508 5508 5508 5507 5506 5505 5503 5501 5499 5496 5494 5491 5488
5422 5430 5434 5435 5441 5451 5452 5454 5453 5458 5462 5465 5465 5465 5467 5469 5470 5471 5473 5475 5476 5477 5479 5480 5481 5483 5484 5485 5486 5488 5489 5490 5490 5491 5490 5489 5488 5487 5484 5481 5479 5476 5473 5470
5406 5410 5409 5413 5430 5435 5441 5444 5438 5442 5446 5446 5447 5450 5453 5455 5456 5457 5460 5462 5463 5463 5465 5466 5467 5468 5468 5469 5469 5470 5472 5472 5472 5472 5471 5471 5470 5468 5466 5464 5461 5458 5456 5453
5391 5390 5396 5397 5410 5413 5426 5431 5428 5424 5426 5428 5431 5434 5437 5440 5442 5443 5445 5447 5448 5449 5449 5450 5451 5452 5452 5453 5455 5455 5454 5455 5455 5455 5455 5453 5452 5450 5448 5447 5445 5443 5440 5435
5372 5374 5375 5379 5397 5391 5404 5407 5408 5409 5411 5412 5413 5416 5419 5424 5426 5427 5427 5430 5432 5433 5434 5435 5436 5436 5436 5437 5437 5437 5438 5439 5439 5440 5439 5438 5436 5435 5433 5430 5427 5424 5421 5418